National Oceanic Atmosphere Administration National Weather Service Headquarters National Weather Service Headquarters
NOAA logo WFO Anchorage Scalable transition graphic NWS logo
Transition from title bar to navgation bar   Aviation Weather 01 AKDT 
blankspace Home   |   Mobile   |   Social Media   |   Mesonet   |   Surface Map   |   Radar   |   Submit Storm Reports   |   News =09 GMT 

LocalForecast by City, St or Zip Code

spacer

Forecasts/Products
  Public
  Forecast Discussion
    - With Glossary
  Aviation
  Marine
  Hydrology(RFC)
  Rivers & Lakes AHPS
  Ice Desk
  TV Weather
  Fire Weather
  Avalanche
  Travel 511
  Graphical
  xml logo RSS Feeds
  Marine FTPMail

spacer

Data
  Mesonet
  Model Graphics
  Local Model
  Observations
  Marine Obs
  Satellite/Radar
  Vent Factor
  Soaring Index
  Weather Links

spacer

Climate
  PAFC Climate
  Interactive Climate
  PAFC Records
  Local
  National
  More

spacer

Outreach
  About Us
  Community Outreach
  Kids' Page
  Tour/Speaker Request
  Weather Classroom
  Social Media

spacer

Reports
  COOP Observers
  Local Storm Reports
  Spotter Page
  Submit a Storm Report

spacer

Miscellaneous
  Archived Alaska Weather Stories
  Student Career Opportunities
  Research Papers

spacer

Print Friendly/
Low Bandwidth

  Public Forecasts
  Marine Forecasts

spacer

Contact Us
  mailto pafcweb

spacer

Facebook Follow the National Weather Service in Alaska on Twitter
USA.gov is the U.S. government's official web portal to all federal, state and local government web resources and services.


 ICAO ID:   AAWU Graphics

Internet access to TAFs and METAR observations is for planning purposes only. We can not guarantee the timeliness of internet products. Before flying please get a formal pilot briefing (1-800-992-7433) and ALWAYS file a Flight Plan!Pilot briefings are provided to licensed aircraft pilots, ONLY! Others may not use the above number to obtain weather information.

Check out the Key to TAFs and METARs for help with decoding the information.

A 12 hour summary of TAFs can be found here.

PABI TAF
PABI 2604/ VRB06KT 8000 -SN FEW010 BKN030 OVC050 620307

 
      QNH2984INS
      BECMG 2514/2515 11006KT 8000 BR FEW020 BKN040 OVC060 620409
      QNH2990INS TXM03/2603Z TNM09/2516Z AMD 250345
      LAST NO AMDS AFT 2505
      NEXT 2715=


PABI 250917Z AUTO 00000KT 3SM -SN BR SCT026 OVC037 M07/M07 A2998=
METAR PABI 250853Z AUTO 24003KT 8SM -SN OVC024 M06/M07 A2997=
PABI 250835Z AUTO 00000KT 9SM BKN021 OVC029 M06/M07 A2997=
METAR PABI 250753Z AUTO 21003KT 5SM -SN BR SCT030 OVC042 M06/M07
     A2997=
METAR PABI 250653Z AUTO 00000KT 8SM OVC050 M06/M07 A2996=
METAR PABI 250553Z AUTO 23003KT 5SM -SN BR OVC042 M06/M07 A2995=
SPECI PABI 250526Z 21003KT 3SM -SN BR OVC038 M06/M07 A2995 RMK AO2
 LAST P0001 T10561067=
PABI 250526Z 21003KT 3SM -SN BR OVC038 M06/M07 A2995=


National Weather Service
Anchorage Forecast Office
6930 Sand Lake Road
Anchorage, Ak 99502
(907) 266-5105 M-F/7-5pm
About Us
Career Opportunities
Glossary
Disclaimer
Privacy Policy
Credits
Alaska Weather Information Line:
1-800-472-0391